{"data":{"norad_id":48667,"intl_designator":"2021-044AF","name":"STARLINK-2735","alt_names":[],"object_type":"PAYLOAD","status":"ACTIVE","operator":null,"country":"US","launch_date":"2021-05-26","launch_site_code":"AFETR","launch_vehicle":null,"mission":null,"orbit_class":"UNKNOWN","rcs_meters":null,"size_class":null,"mass_kg":null,"dimensions":null,"purposes":["comms"],"wikipedia_slug":null,"has_3d_model":false,"image_url":null,"decayed_at":null,"tle_current":{"epoch":"2026-05-25T05:12:33.282432Z","epoch_age_seconds":56255,"freshness":"FRESH","line1":"1 48667U 21044AF  26145.21705188 -.00043455  00000+0 -14938-2 0  9991","line2":"2 48667  53.1598 118.3958 0001463 338.3517  21.7422 15.29540834275534","mean_motion":15.29540834,"eccentricity":0.0001463,"inclination_deg":53.1598,"raan_deg":118.3958,"arg_perigee_deg":338.3517,"mean_anomaly_deg":21.7422,"bstar":-0.0014938,"rev_number":27553,"period_min":94.145901043659,"perigee_km":476.1809936177,"apogee_km":478.18686052096,"semimajor_km":6855.3209270693,"source":"CELESTRAK","updated_at":"2026-05-25T13:38:16.757984Z"}}}